Date String (YYYY-MM-DD hh:mm:ss) UTC,Instrument flags,absolute air pressure of the measurement (hPa),sample flow rate (lpm),inlet stack bypass flow (lpm),air temperature of the measurement (°C),ambient temperature measured by the external sensor (°C),aerosol sample conditioner tube jacket temperature (°C),OPC LED temperature (°C),internal box temperature (°C),relative humidity of the measurement (%),span deviation,mass concentration of particles derived from Lorenz-Mie calculation of OPC scattering (μg/m³),mass concentration of particles derived from Lorenz-Mie calculation of OPC scattering (μg/m³),mass concentration of particles derived from Lorenz-Mie calculation of OPC scattering (μg/m³)
DateTimeUTC,F1_M11,P_M11,Q1_M11,Q2_M11,T1_M11,T2_M11,T3_M11,T4_M11,T5_M11,U1_M11,ZSPAN_M11,X2_M11,X0_M11,X1_M11
2023-08-15 01:00:00,SystemResetWarning,0839.1,5.01,000.00,029.2,027.9,000.0,037.5,031.0,21.1,0000.0,0005.59,0023.80,0004.09
2023-08-15 01:01:00,SystemResetWarning,0839.0,5.00,000.00,029.2,026.9,000.0,037.4,030.8,21.1,0000.0,0005.55,0024.10,0004.09
2023-08-15 01:02:00,SystemResetWarning,0838.9,4.99,000.00,029.2,025.0,000.0,037.3,030.4,21.1,0000.0,0005.48,0022.11,0004.08
2023-08-15 01:03:00,SystemResetWarning,0838.9,5.01,000.00,029.1,024.6,000.0,037.2,030.2,21.5,0000.0,0005.46,0020.97,0004.08
2023-08-15 01:04:00,SystemResetWarning,0838.8,5.01,000.00,029.0,024.9,000.0,037.2,030.1,21.6,0000.0,0005.42,0020.38,0004.07
2023-08-15 01:05:00,SystemResetWarning,0838.9,5.00,000.00,028.9,025.4,000.0,037.3,030.2,21.4,0000.0,0005.45,0019.01,0004.07
2023-08-15 01:06:00,SystemResetWarning,0838.9,4.99,000.00,028.9,025.9,000.0,037.3,030.3,21.7,0000.0,0005.50,0018.78,0004.08
2023-08-15 01:07:00,SystemResetWarning,0838.9,4.99,000.00,028.9,026.3,000.0,037.3,030.5,21.5,0000.0,0005.45,0018.46,0004.08
2023-08-15 01:08:00,SystemResetWarning,0838.9,5.00,000.00,028.9,026.8,000.0,037.3,030.6,21.6,0000.0,0005.45,0018.21,0004.08
2023-08-15 01:09:00,SystemResetWarning,0839.0,4.99,000.00,029.0,027.1,000.0,037.4,030.6,21.5,0000.0,0005.45,0017.51,0004.09
2023-08-15 01:10:00,SystemResetWarning,0839.0,4.99,000.00,029.0,027.4,000.0,037.4,030.7,21.3,0000.0,0005.44,0017.55,0004.10
2023-08-15 01:11:00,SystemResetWarning,0838.9,5.00,000.00,029.1,027.7,000.0,037.4,030.8,21.4,0000.0,0005.45,0017.28,0004.11
2023-08-15 01:12:00,SystemResetWarning,0838.9,5.00,000.00,029.1,027.9,000.0,037.4,030.9,21.5,0000.0,0005.48,0016.96,0004.12
2023-08-15 01:13:00,SystemResetWarning,0838.9,5.01,000.00,029.2,028.1,000.0,037.5,031.0,21.3,0000.0,0005.51,0018.20,0004.13
2023-08-15 01:14:00,SystemResetWarning,0838.9,5.00,000.00,029.2,027.6,000.0,037.4,030.9,21.4,0000.0,0005.53,0018.38,0004.13
2023-08-15 01:15:00,SystemResetWarning,0838.9,4.99,000.00,029.2,025.6,000.0,037.3,030.4,21.4,0000.0,0005.55,0018.06,0004.13
2023-08-15 01:16:00,SystemResetWarning,0838.9,5.01,000.00,029.1,024.6,000.0,037.2,030.2,21.5,0000.0,0005.44,0017.43,0004.12
2023-08-15 01:17:00,SystemResetWarning,0839.0,5.01,000.00,029.0,024.8,000.0,037.2,030.1,21.5,0000.0,0005.41,0017.34,0004.12
2023-08-15 01:18:00,SystemResetWarning,0838.9,5.00,000.00,028.9,025.2,000.0,037.2,030.2,21.6,0000.0,0005.49,0017.67,0004.12
2023-08-15 01:19:00,SystemResetWarning,0838.9,5.00,000.00,028.9,025.7,000.0,037.3,030.3,21.7,0000.0,0005.53,0018.35,0004.13
2023-08-15 01:20:00,SystemResetWarning,0838.8,5.01,000.00,028.9,026.2,000.0,037.3,030.4,21.6,0000.0,0005.52,0019.74,0004.14
2023-08-15 01:21:00,SystemResetWarning,0838.8,5.00,000.00,028.9,026.6,000.0,037.3,030.5,21.7,0000.4,0005.56,0021.02,0004.13
2023-08-15 01:22:00,SystemResetWarning,0838.9,5.01,000.00,028.9,027.0,000.0,037.3,030.6,21.6,0000.0,0005.55,0019.98,0004.13
2023-08-15 01:23:00,SystemResetWarning,0838.9,4.99,000.00,029.0,027.3,000.0,037.3,030.7,21.7,0000.0,0005.56,0019.78,0004.13
2023-08-15 01:24:00,SystemResetWarning,0838.9,4.99,000.00,029.0,027.5,000.0,037.4,030.7,21.7,0000.0,0005.61,0018.95,0004.12
2023-08-15 01:25:00,SystemResetWarning,0838.9,5.00,000.00,029.1,027.8,000.0,037.4,030.8,21.6,0000.0,0005.64,0018.78,0004.12
2023-08-15 01:26:00,SystemResetWarning,0838.9,5.00,000.00,029.1,028.0,000.0,037.4,030.9,21.5,0000.0,0005.67,0018.70,0004.14
2023-08-15 01:27:00,SystemResetWarning,0838.9,5.00,000.00,029.2,028.0,000.0,037.4,030.9,21.5,0000.0,0005.72,0019.70,0004.15
2023-08-15 01:28:00,SystemResetWarning,0838.9,4.99,000.00,029.2,026.3,000.0,037.3,030.6,21.5,0000.0,0005.75,0019.47,0004.15
2023-08-15 01:29:00,SystemResetWarning,0838.9,5.00,000.00,029.1,024.7,000.0,037.2,030.3,21.7,0000.0,0005.73,0019.23,0004.16
2023-08-15 01:30:00,SystemResetWarning,0838.9,5.02,000.00,029.0,024.6,000.0,037.1,030.1,21.8,0000.0,0005.68,0019.10,0004.17
2023-08-15 01:31:00,SystemResetWarning,0838.9,5.00,000.00,028.9,025.0,000.0,037.2,030.1,22.0,-000.3,0005.65,0018.23,0004.16
2023-08-15 01:32:00,SystemResetWarning,0838.9,5.00,000.00,028.8,025.4,000.0,037.2,030.2,22.0,0000.0,0005.66,0017.70,0004.16
2023-08-15 01:33:00,SystemResetWarning,0838.9,5.00,000.00,028.8,025.9,000.0,037.2,030.3,22.0,-000.0,0005.69,0018.30,0004.16
2023-08-15 01:34:00,SystemResetWarning,0838.9,5.00,000.00,028.9,026.4,000.0,037.3,030.5,22.0,0000.2,0005.70,0018.59,0004.16
2023-08-15 01:35:00,SystemResetWarning,0838.9,5.01,000.00,028.9,026.8,000.0,037.3,030.6,21.9,0000.7,0005.71,0018.29,0004.17
2023-08-15 01:36:00,SystemResetWarning,0838.9,4.99,000.00,028.9,027.1,000.0,037.3,030.7,21.9,0000.5,0005.76,0018.31,0004.17
2023-08-15 01:37:00,SystemResetWarning,0839.0,4.99,000.00,029.0,027.4,000.0,037.3,030.7,21.8,0001.1,0005.76,0018.97,0004.17
2023-08-15 01:38:00,SystemResetWarning,0839.0,5.00,000.00,029.1,027.7,000.0,037.4,030.8,21.6,0001.4,0005.76,0018.59,0004.16
2023-08-15 01:39:00,SystemResetWarning,0839.1,5.01,000.00,029.1,027.9,000.0,037.4,030.9,21.3,0001.4,0005.75,0019.28,0004.18
2023-08-15 01:40:00,SystemResetWarning,0839.1,5.00,000.00,029.2,028.1,000.0,037.4,031.0,21.2,0001.5,0005.81,0019.18,0004.18
2023-08-15 01:41:00,SystemResetWarning,0839.1,4.99,000.00,029.2,027.9,000.0,037.4,031.0,21.1,0001.3,0005.81,0019.36,0004.16
2023-08-15 01:42:00,SystemResetWarning,0839.1,4.99,000.00,029.2,026.0,000.0,037.3,030.5,21.2,0001.3,0005.84,0019.82,0004.16
2023-08-15 01:43:00,SystemResetWarning,0839.0,5.02,000.00,029.1,024.6,000.0,037.2,030.2,21.4,0001.0,0005.85,0020.13,0004.17
2023-08-15 01:44:00,SystemResetWarning,0839.0,4.99,000.00,029.0,024.6,000.0,037.2,030.1,21.5,0000.4,0005.88,0019.99,0004.19
2023-08-15 01:45:00,SystemResetWarning,0839.1,5.00,000.00,028.9,025.0,000.0,037.2,030.0,21.7,0000.5,0005.91,0020.39,0004.20
2023-08-15 01:46:00,SystemResetWarning,0839.1,5.00,000.00,028.8,025.5,000.0,037.2,030.2,21.8,-000.0,0005.92,0020.88,0004.22
2023-08-15 01:47:00,SystemResetWarning,0839.1,5.00,000.00,028.9,025.9,000.0,037.2,030.3,21.8,-000.2,0005.86,0022.64,0004.23
2023-08-15 01:48:00,SystemResetWarning,0839.1,5.00,000.00,028.9,026.4,000.0,037.3,030.5,21.8,0000.0,0005.83,0023.87,0004.22
2023-08-15 01:49:00,SystemResetWarning,0839.1,5.00,000.00,028.9,026.8,000.0,037.3,030.6,21.9,0000.0,0005.89,0024.42,0004.24
2023-08-15 01:50:00,SystemResetWarning,0839.1,5.01,000.00,029.0,027.1,000.0,037.3,030.6,21.9,0000.0,0005.94,0023.92,0004.24
2023-08-15 01:51:00,SystemResetWarning,0839.2,4.99,000.00,029.0,027.4,000.0,037.3,030.7,22.0,0000.0,0005.93,0023.37,0004.26
2023-08-15 01:52:00,SystemResetWarning,0839.1,5.00,000.00,029.0,027.7,000.0,037.4,030.8,22.0,0000.0,0005.99,0024.20,0004.29
2023-08-15 01:53:00,SystemResetWarning,0839.2,5.00,000.00,029.1,027.9,000.0,037.4,030.9,22.0,0000.0,0006.01,0024.16,0004.31
2023-08-15 01:54:00,SystemResetWarning,0839.2,5.00,000.00,029.2,028.1,000.0,037.4,031.0,21.9,0000.0,0006.07,0023.24,0004.32
2023-08-15 01:55:00,SystemResetWarning,0839.2,4.99,000.00,029.2,028.2,000.0,037.5,031.0,21.8,0000.0,0006.04,0022.93,0004.32
2023-08-15 01:56:00,SystemResetWarning,0839.2,4.99,000.00,029.2,026.9,000.0,037.4,030.8,21.8,0000.0,0006.05,0022.35,0004.32
2023-08-15 01:57:00,SystemResetWarning,0839.1,5.00,000.00,029.1,025.0,000.0,037.3,030.4,21.9,0000.0,0006.05,0022.81,0004.32
2023-08-15 01:58:00,SystemResetWarning,0839.1,5.02,000.00,029.0,024.5,000.0,037.2,030.1,22.1,0000.0,0006.08,0021.54,0004.33
2023-08-15 01:59:00,SystemResetWarning,0839.1,5.00,000.00,028.9,024.9,000.0,037.2,030.1,22.2,0000.0,0006.21,0020.03,0004.34
